Regional Weather Roundup
Issued by NWS

Home | Current Version | Previous Version | Text Only | Print | Product List | Glossary Off
Versions: 1 2 3 4 5 6 7 8 9 10 11 12 13 14 15 16 17 18 19 20 21 22 23 24 25 26 27 28 29 30 31 32 33 34 35 36 37 38 39 40 41 42 43 44 45 46 47 48 49 50

647
ASUS43 KLMK 121510
RWRKY
KENTUCKY REGIONAL WEATHER ROUNDUP
NATIONAL WEATHER SERVICE LOUISVILLE KY
1000 AM EST FRI FEB 12 2016

NOTE "FAIR" INDICATES FEW OR NO CLOUDS BELOW 12,000 FEET
WITH NO SIGNIFICANT WEATHER AND/OR OBSTRUCTIONS TO VISIBILITY.

KYZ001>023-026-027-061>063-070>075-121600-
WESTERN AND SOUTH CENTRAL KENTUCKY

CITY           SKY/WX    TMP DP  RH WIND       PRES   REMARKS
PADUCAH        CLOUDY    30  24  78 NE5       30.23R WCI  25
HENDERSON      CLOUDY    25  21  86 NW3       30.25S
OWENSBORO      CLOUDY    26  24  92 NW6       30.25R WCI  19
HOPKINSVILLE   CLOUDY    29  26  86 N6        30.21R WCI  23
BOWLING GREEN  CLOUDY    29  25  85 CALM      30.21S
GLASGOW        LGT SNOW  27  26  97 CALM      30.19F
$$

KYZ024-025-028>034-038-045-046-053-121600-
NORTH CENTRAL KENTUCKY

CITY           SKY/WX    TMP DP  RH WIND       PRES   REMARKS
LOUISVILLE/SDF LGT SNOW  28  19  69 W7        30.21F WCI  21
LOUISVILLE/LOU LGT SNOW  27  19  72 NW8       30.22R WCI  19
FORT KNOX      LGT SNOW  27  23  86 W8        30.18S WCI  18
$$

KYZ035>037-039>044-047>052-055>060-089>105-121600-
NORTHEAST KENTUCKY

CITY           SKY/WX    TMP DP  RH WIND       PRES   REMARKS
LEXINGTON      CLOUDY    26  14  60 CALM      30.16R
COVINGTON      FLURRIES  23  13  65 SW7       30.17S WCI  15
FRANKFORT      CLOUDY    27  14  58 W3        30.18R
$$

KYZ054-064>069-076>088-106>120-121600-
SOUTHEAST KENTUCKY

CITY           SKY/WX    TMP DP  RH WIND       PRES   REMARKS
JACKSON        CLOUDY    25  12  58 CALM      30.12F
LONDON         LGT SNOW  24  20  84 CALM      30.14S FOG
SOMERSET       SNOW      25  23  93 CALM      30.18S VSB 1/2
MIDDLESBORO    MIX PCPN  28  26  89 CALM      30.14F
MONTICELLO     LGT SNOW  28  25  86 NW3       30.19S FOG
$$





USA.gov is the U.S. government's official web portal to all federal, state and local government web resources and services.